Location: Unspecified
(44.0704°N, 88.6889°W)
Time: 22:38:14
(UTC+02:00)

Okean 3 - Pass Details

Date: 31 March 2019
Orbit: 576 x 602 km, 82.5° (Epoch: 19 April)

Event Time Altitude Azimuth Distance (km) Brightness Sun altitude
Exits shadow 11:33:10 38° 168° (SSE) 921 4.2 -22.1°
Maximum altitude 11:34:42 70° 96° (E) 643 3.7 -21.9°
Drops below altitude 10° 11:39:00 10° 13° (NNE) 1,953 6.7 -21.2°
Sets 11:41:13 0° 11° (N) 2,858 7.5 -20.8°
